| time (UTC) | temp C | wind direction | speed KPH | gust KPH | rain 1hr cm | rain 24hr cm | rain mn cm | humidity % | barometer mb |
| 20260504214540 | 23 | 186 | 8.0 | 14.5 | 0.00 | 0.00 | 0.00 | 34 | 1002.6 |
| 20260504214046 | 23 | 196 | 3.2 | 11.3 | 0.00 | 0.00 | 0.00 | 37 | 1002.7 |
| 20260504213522 | 23 | 238 | 4.8 | 11.3 | 0.00 | 0.00 | 0.00 | 34 | 1002.7 |
| 20260504213041 | 23 | 190 | 4.8 | 11.3 | 0.00 | 0.00 | 0.00 | 34 | 1002.7 |
| 20260504212534 | 23 | 200 | 8.0 | 12.9 | 0.00 | 0.00 | 0.00 | 35 | 1002.7 |
| 20260504212042 | 23 | 193 | 6.4 | 12.9 | 0.00 | 0.00 | 0.00 | 33 | 1002.8 |
| 20260504211534 | 23 | 191 | 6.4 | 12.9 | 0.00 | 0.00 | 0.00 | 35 | 1002.8 |
| 20260504211043 | 23 | 188 | 4.8 | 20.9 | 0.00 | 0.00 | 0.00 | 36 | 1002.8 |
| 20260504210546 | 23 | 180 | 11.3 | 20.9 | 0.00 | 0.00 | 0.00 | 33 | 1002.9 |
| 20260504210021 | 23 | 195 | 9.7 | 16.1 | 0.00 | 0.00 | 0.00 | 34 | 1003.0 |
| 20260504205548 | 23 | 253 | 6.4 | 16.1 | 0.00 | 0.00 | 0.00 | 37 | 1002.8 |
| 20260504205026 | 23 | 226 | 9.7 | 14.5 | 0.00 | 0.00 | 0.00 | 35 | 1002.8 |
| 20260504204522 | 23 | 193 | 8.0 | 20.9 | 0.00 | 0.00 | 0.00 | 35 | 1003.0 |
| 20260504204055 | 23 | 193 | 12.9 | 20.9 | 0.00 | 0.00 | 0.00 | 35 | 1003.0 |
| 20260504203601 | 23 | 192 | 8.0 | 16.1 | 0.00 | 0.00 | 0.00 | 36 | 1003.0 |
| 20260504203018 | 23 | 253 | 4.8 | 16.1 | 0.00 | 0.00 | 0.00 | 37 | 1003.1 |
| 20260504202547 | 23 | 247 | 6.4 | 16.1 | 0.00 | 0.00 | 0.00 | 37 | 1003.3 |
| 20260504202035 | 23 | 179 | 8.0 | 14.5 | 0.00 | 0.00 | 0.00 | 37 | 1003.3 |
| 20260504201549 | 23 | 238 | 4.8 | 14.5 | 0.00 | 0.00 | 0.00 | 38 | 1003.3 |
| 20260504201033 | 23 | 192 | 6.4 | 14.5 | 0.00 | 0.00 | 0.00 | 39 | 1003.4 |
| 20260504200602 | 23 | 214 | 4.8 | 17.7 | 0.00 | 0.00 | 0.00 | 38 | 1003.5 |
| 20260504200027 | 23 | 303 | 4.8 | 20.9 | 0.00 | 0.00 | 0.00 | 39 | 1003.5 |
| 20260504195518 | 23 | 242 | 8.0 | 20.9 | 0.00 | 0.00 | 0.00 | 37 | 1003.7 |
| 20260504195026 | 22 | 205 | 8.0 | 19.3 | 0.00 | 0.00 | 0.00 | 38 | 1003.7 |
| 20260504194534 | 22 | 224 | 6.4 | 11.3 | 0.00 | 0.00 | 0.00 | 40 | 1003.8 |
| 20260504194029 | 23 | 204 | 4.8 | 14.5 | 0.00 | 0.00 | 0.00 | 40 | 1003.8 |
| 20260504193538 | 23 | 192 | 6.4 | 17.7 | 0.00 | 0.00 | 0.00 | 41 | 1003.8 |
| 20260504193027 | 22 | 206 | 9.7 | 17.7 | 0.00 | 0.00 | 0.00 | 41 | 1003.9 |
| 20260504192539 | 22 | 232 | 4.8 | 12.9 | 0.00 | 0.00 | 0.00 | 41 | 1003.9 |
| 20260504192024 | 22 | 254 | 8.0 | 14.5 | 0.00 | 0.00 | 0.00 | 39 | 1003.9 |
| 20260504191524 | 22 | 240 | 9.7 | 24.1 | 0.00 | 0.00 | 0.00 | 40 | 1003.9 |
| 20260504191033 | 23 | 196 | 9.7 | 19.3 | 0.00 | 0.00 | 0.00 | 41 | 1003.8 |
| 20260504190522 | 23 | 211 | 6.4 | 14.5 | 0.00 | 0.00 | 0.00 | 43 | 1004.0 |
| 20260504190031 | 22 | 233 | 8.0 | 14.5 | 0.00 | 0.00 | 0.00 | 44 | 1004.2 |
| 20260504185526 | 22 | 187 | 9.7 | 24.1 | 0.00 | 0.00 | 0.00 | 43 | 1004.1 |
| 20260504185025 | 22 | 205 | 8.0 | 24.1 | 0.00 | 0.00 | 0.00 | 42 | 1004.2 |
| 20260504184517 | 22 | 258 | 9.7 | 24.1 | 0.00 | 0.00 | 0.00 | 43 | 1004.2 |
| 20260504184028 | 22 | 195 | 8.0 | 17.7 | 0.00 | 0.00 | 0.00 | 44 | 1004.3 |
| 20260504183529 | 22 | 184 | 8.0 | 17.7 | 0.00 | 0.00 | 0.00 | 44 | 1004.5 |
| 20260504183036 | 22 | 198 | 8.0 | 20.9 | 0.00 | 0.00 | 0.00 | 45 | 1004.5 |
| 20260504182522 | 22 | 181 | 9.7 | 20.9 | 0.00 | 0.00 | 0.00 | 45 | 1004.4 |
| 20260504182036 | 22 | 197 | 8.0 | 14.5 | 0.00 | 0.00 | 0.00 | 44 | 1004.6 |
| 20260504181526 | 22 | 188 | 6.4 | 12.9 | 0.00 | 0.00 | 0.00 | 46 | 1004.6 |
| 20260504181046 | 22 | 272 | 6.4 | 16.1 | 0.00 | 0.00 | 0.00 | 47 | 1004.6 |
| 20260504180522 | 22 | 242 | 6.4 | 17.7 | 0.00 | 0.00 | 0.00 | 46 | 1004.6 |
| 20260504180022 | 22 | 238 | 9.7 | 17.7 | 0.00 | 0.00 | 0.00 | 45 | 1004.7 |
| 20260504175551 | 22 | 212 | 6.4 | 19.3 | 0.00 | 0.00 | 0.00 | 47 | 1004.8 |
| 20260504175037 | 21 | 211 | 11.3 | 19.3 | 0.00 | 0.00 | 0.00 | 47 | 1004.8 |
| 20260504174526 | 21 | 185 | 8.0 | 14.5 | 0.00 | 0.00 | 0.00 | 47 | 1004.9 |
| 20260504174036 | 21 | 252 | 9.7 | 19.3 | 0.00 | 0.00 | 0.00 | 46 | 1004.9 |
| 20260504173531 | 21 | 231 | 9.7 | 22.5 | 0.00 | 0.00 | 0.00 | 48 | 1004.8 |
| 20260504173037 | 21 | 220 | 9.7 | 22.5 | 0.00 | 0.00 | 0.00 | 46 | 1004.9 |
| 20260504172529 | 21 | 254 | 8.0 | 22.5 | 0.00 | 0.00 | 0.00 | 48 | 1004.9 |
| 20260504172104 | 21 | 182 | 12.9 | 22.5 | 0.00 | 0.00 | 0.00 | 46 | 1004.9 |
| 20260504171612 | 21 | 255 | 8.0 | 19.3 | 0.00 | 0.00 | 0.00 | 46 | 1005.1 |
| 20260504171028 | 21 | 211 | 9.7 | 27.4 | 0.00 | 0.00 | 0.00 | 48 | 1005.1 |
| 20260504170549 | 21 | 210 | 14.5 | 27.4 | 0.00 | 0.00 | 0.00 | 46 | 1005.1 |
| 20260504151024 | 18 | 196 | 9.7 | 17.7 | 0.00 | 0.00 | 0.00 | 51 | 1006.1 |
| 20260504150553 | 18 | 203 | 8.0 | 17.7 | 0.00 | 0.00 | 0.00 | 51 | 1006.2 |
| 20260504140522 | 17 | 197 | 8.0 | 22.5 | 0.00 | 0.00 | 0.00 | 50 | 1006.1 |
| 20260504130525 | 15 | 186 | 6.4 | 16.1 | 0.00 | 0.00 | 0.00 | 53 | 1006.7 |
| 20260504110549 | 12 | 194 | 6.4 | 12.9 | 0.00 | 0.00 | 0.00 | 55 | 1006.9 |
| 20260504100528 | 11 | 200 | 6.4 | 11.3 | 0.00 | 0.00 | 0.00 | 55 | 1006.7 |
| 20260504081550 | 11 | 199 | 6.4 | 11.3 | 0.00 | 0.00 | 0.00 | 56 | 1007.4 |
| 20260504081047 | 11 | 205 | 6.4 | 11.3 | 0.00 | 0.00 | 0.00 | 56 | 1007.4 |
| 20260504080522 | 11 | 193 | 8.0 | 16.1 | 0.00 | 0.00 | 0.00 | 56 | 1007.5 |
| 20260504050537 | 12 | 196 | 3.2 | 9.7 | 0.00 | 0.00 | 0.00 | 55 | 1008.4 |
| 20260504045552 | 12 | 194 | 4.8 | 8.0 | 0.00 | 0.00 | 0.00 | 54 | 1008.6 |
| 20260504045037 | 12 | 185 | 4.8 | 11.3 | 0.00 | 0.00 | 0.00 | 54 | 1008.5 |
| 20260504044549 | 12 | 198 | 6.4 | 11.3 | 0.00 | 0.00 | 0.00 | 54 | 1008.6 |
| 20260504044046 | 12 | 196 | 4.8 | 9.7 | 0.00 | 0.00 | 0.00 | 53 | 1008.6 |
| 20260504043556 | 12 | 196 | 4.8 | 12.9 | 0.00 | 0.00 | 0.00 | 54 | 1008.6 |
| 20260504043046 | 12 | 161 | 6.4 | 12.9 | 0.00 | 0.00 | 0.00 | 53 | 1008.6 |
| 20260504042528 | 12 | 196 | 8.0 | 14.5 | 0.00 | 0.00 | 0.00 | 53 | 1008.6 |
| 20260504042045 | 12 | 195 | 4.8 | 11.3 | 0.00 | 0.00 | 0.00 | 53 | 1008.5 |
| 20260504041526 | 13 | 202 | 6.4 | 12.9 | 0.00 | 0.00 | 0.00 | 53 | 1008.6 |
| 20260504041047 | 13 | 199 | 6.4 | 12.9 | 0.00 | 0.00 | 0.00 | 53 | 1008.6 |
| 20260504040544 | 13 | 205 | 4.8 | 11.3 | 0.00 | 0.00 | 0.00 | 53 | 1008.5 |
| 20260504040030 | 13 | 185 | 4.8 | 8.0 | 0.00 | 0.00 | 0.00 | 53 | 1008.5 |
| 20260504035541 | 13 | 194 | 4.8 | 8.0 | 0.00 | 0.00 | 0.00 | 53 | 1008.5 |
| 20260504035109 | 13 | 190 | 4.8 | 11.3 | 0.00 | 0.00 | 0.00 | 53 | 1008.4 |
| 20260504034537 | 13 | 205 | 4.8 | 11.3 | 0.00 | 0.00 | 0.00 | 53 | 1008.5 |
| 20260504034044 | 13 | 187 | 3.2 | 8.0 | 0.00 | 0.00 | 0.00 | 53 | 1008.4 |
| 20260504033611 | 13 | 198 | 3.2 | 9.7 | 0.00 | 0.00 | 0.00 | 53 | 1008.4 |
| 20260504033025 | 13 | 202 | 4.8 | 12.9 | 0.00 | 0.00 | 0.00 | 53 | 1008.5 |
| 20260504032615 | 13 | 223 | 4.8 | 12.9 | 0.00 | 0.00 | 0.00 | 52 | 1008.5 |
| 20260504032030 | 13 | 202 | 4.8 | 9.7 | 0.00 | 0.00 | 0.00 | 53 | 1008.5 |
| 20260504031541 | 13 | 208 | 4.8 | 9.7 | 0.00 | 0.00 | 0.00 | 53 | 1008.5 |
| 20260504031036 | 13 | 221 | 3.2 | 8.0 | 0.00 | 0.00 | 0.00 | 54 | 1008.5 |
| 20260504030541 | 13 | 222 | 3.2 | 9.7 | 0.00 | 0.00 | 0.00 | 53 | 1008.6 |
| 20260504030039 | 13 | 205 | 4.8 | 9.7 | 0.00 | 0.00 | 0.00 | 53 | 1008.5 |
| 20260504025519 | 13 | 205 | 4.8 | 12.9 | 0.00 | 0.00 | 0.00 | 54 | 1008.6 |
| 20260504025034 | 13 | 202 | 6.4 | 12.9 | 0.00 | 0.00 | 0.00 | 53 | 1008.6 |
| 20260504024518 | 13 | 198 | 3.2 | 11.3 | 0.00 | 0.00 | 0.00 | 54 | 1008.7 |
| 20260504024053 | 12 | 234 | 4.8 | 11.3 | 0.00 | 0.00 | 0.00 | 55 | 1008.7 |
| 20260504023530 | 12 | 218 | 4.8 | 9.7 | 0.00 | 0.00 | 0.00 | 54 | 1008.7 |
| 20260504023110 | 12 | 241 | 4.8 | 9.7 | 0.00 | 0.00 | 0.00 | 55 | 1008.8 |
| 20260504022538 | 12 | 221 | 3.2 | 6.4 | 0.00 | 0.00 | 0.00 | 55 | 1008.9 |
| 20260504022022 | 12 | 256 | 3.2 | 6.4 | 0.00 | 0.00 | 0.00 | 57 | 1009.0 |
| 20260504021537 | 12 | 200 | 0.0 | 3.2 | 0.00 | 0.00 | 0.00 | 56 | 1008.9 |
| 20260504021025 | 12 | 200 | 0.0 | 3.2 | 0.00 | 0.00 | 0.00 | 57 | 1008.9 |
| 20260504020545 | 12 | 200 | 1.6 | 4.8 | 0.00 | 0.00 | 0.00 | 58 | 1008.9 |
| 20260504020059 | 12 | 200 | 3.2 | 4.8 | 0.00 | 0.00 | 0.00 | 57 | 1008.9 |
| 20260504015528 | 12 | 200 | 0.0 | 4.8 | 0.00 | 0.00 | 0.00 | 57 | 1008.9 |
| 20260504015034 | 12 | 200 | 1.6 | 8.0 | 0.00 | 0.00 | 0.00 | 57 | 1008.8 |
| 20260504014525 | 12 | 200 | 4.8 | 8.0 | 0.00 | 0.00 | 0.00 | 56 | 1008.8 |
| 20260504014034 | 12 | 246 | 0.0 | 4.8 | 0.00 | 0.00 | 0.00 | 57 | 1009.0 |
| 20260504013547 | 12 | 188 | 0.0 | 11.3 | 0.00 | 0.00 | 0.00 | 57 | 1009.1 |
| 20260504013052 | 12 | 262 | 3.2 | 11.3 | 0.00 | 0.00 | 0.00 | 57 | 1009.1 |
| 20260504012526 | 12 | 220 | 1.6 | 14.5 | 0.00 | 0.00 | 0.00 | 57 | 1009.3 |
| 20260504012020 | 12 | 241 | 6.4 | 16.1 | 0.00 | 0.00 | 0.00 | 57 | 1009.4 |
| 20260504011534 | 12 | 245 | 6.4 | 17.7 | 0.00 | 0.00 | 0.00 | 57 | 1009.3 |
| 20260504011029 | 12 | 244 | 6.4 | 17.7 | 0.00 | 0.00 | 0.00 | 57 | 1009.3 |
| 20260504010519 | 12 | 221 | 4.8 | 16.1 | 0.00 | 0.00 | 0.00 | 58 | 1009.2 |
| 20260504010038 | 12 | 267 | 3.2 | 11.3 | 0.00 | 0.00 | 0.00 | 59 | 1009.1 |
| 20260504005526 | 12 | 267 | 6.4 | 12.9 | 0.00 | 0.00 | 0.00 | 59 | 1009.3 |
| 20260504005048 | 12 | 218 | 4.8 | 22.5 | 0.00 | 0.00 | 0.00 | 59 | 1009.5 |
| 20260504004609 | 12 | 254 | 11.3 | 22.5 | 0.00 | 0.00 | 0.00 | 58 | 1009.6 |
| 20260504004044 | 12 | 259 | 9.7 | 24.1 | 0.00 | 0.00 | 0.00 | 58 | 1009.7 |
| 20260504003533 | 12 | 311 | 9.7 | 24.1 | 0.00 | 0.00 | 0.00 | 57 | 1009.6 |
| 20260504003027 | 12 | 262 | 4.8 | 17.7 | 0.00 | 0.00 | 0.00 | 57 | 1009.5 |
| 20260504002536 | 12 | 332 | 6.4 | 14.5 | 0.00 | 0.00 | 0.00 | 56 | 1009.3 |
| 20260504002026 | 12 | 220 | 6.4 | 22.5 | 0.00 | 0.00 | 0.00 | 55 | 1009.4 |
| 20260504001540 | 12 | 227 | 8.0 | 22.5 | 0.00 | 0.00 | 0.00 | 54 | 1009.3 |
| 20260504001031 | 12 | 266 | 4.8 | 16.1 | 0.00 | 0.00 | 0.00 | 54 | 1009.1 |
| 20260504000538 | 12 | 248 | 6.4 | 16.1 | 0.00 | 0.00 | 0.00 | 53 | 1009.0 |
| 20260504000046 | 12 | 254 | 8.0 | 16.1 | 0.00 | 0.00 | 0.00 | 53 | 1009.0 |
| 20260503235523 | 13 | 271 | 8.0 | 40.2 | 0.00 | 0.00 | 0.00 | 52 | 1009.1 |
| 20260503235048 | 13 | 218 | 14.5 | 40.2 | 0.00 | 0.00 | 0.00 | 52 | 1009.1 |
| 20260503234541 | 13 | 236 | 24.1 | 41.8 | 0.00 | 0.00 | 0.00 | 51 | 1009.1 |
| 20260503234049 | 13 | 275 | 11.3 | 35.4 | 0.00 | 0.00 | 0.00 | 51 | 1009.2 |
| 20260503233523 | 13 | 258 | 12.9 | 25.7 | 0.00 | 0.00 | 0.00 | 50 | 1009.0 |
| 20260503233048 | 13 | 263 | 12.9 | 25.7 | 0.00 | 0.00 | 0.00 | 50 | 1009.0 |
| 20260503232537 | 13 | 237 | 9.7 | 25.7 | 0.00 | 0.00 | 0.00 | 50 | 1008.9 |
| 20260503232042 | 13 | 233 | 9.7 | 22.5 | 0.00 | 0.00 | 0.00 | 48 | 1008.8 |
| 20260503231524 | 13 | 235 | 11.3 | 22.5 | 0.00 | 0.00 | 0.00 | 47 | 1008.7 |
| 20260503231108 | 13 | 221 | 8.0 | 25.7 | 0.00 | 0.00 | 0.00 | 47 | 1008.7 |
| 20260503230537 | 13 | 244 | 8.0 | 19.3 | 0.00 | 0.00 | 0.00 | 46 | 1008.7 |
| 20260503230032 | 14 | 242 | 6.4 | 27.4 | 0.00 | 0.00 | 0.00 | 46 | 1008.7 |
| 20260503225540 | 14 | 261 | 11.3 | 27.4 | 0.00 | 0.03 | 0.00 | 44 | 1008.5 |
| 20260503225041 | 13 | 254 | 6.4 | 19.3 | 0.00 | 0.03 | 0.00 | 45 | 1008.5 |
| 20260503224545 | 13 | 209 | 8.0 | 17.7 | 0.00 | 0.03 | 0.00 | 46 | 1008.4 |
| 20260503224047 | 13 | 182 | 3.2 | 16.1 | 0.00 | 0.03 | 0.00 | 47 | 1008.5 |
| 20260503223553 | 13 | 255 | 6.4 | 16.1 | 0.00 | 0.03 | 0.00 | 46 | 1008.4 |
| 20260503223025 | 13 | 271 | 3.2 | 17.7 | 0.00 | 0.03 | 0.00 | 47 | 1008.6 |
| 20260503222554 | 13 | 262 | 6.4 | 19.3 | 0.00 | 0.03 | 0.00 | 47 | 1008.7 |
| 20260503222024 | 13 | 275 | 9.7 | 22.5 | 0.00 | 0.03 | 0.00 | 45 | 1008.7 |
| 20260503221555 | 14 | 253 | 9.7 | 22.5 | 0.00 | 0.03 | 0.00 | 46 | 1008.7 |
| 20260503221024 | 14 | 293 | 8.0 | 19.3 | 0.00 | 0.03 | 0.00 | 46 | 1008.8 |
| 20260503220539 | 14 | 262 | 9.7 | 20.9 | 0.00 | 0.03 | 0.00 | 44 | 1008.8 |
| 20260503220028 | 14 | 277 | 11.3 | 22.5 | 0.00 | 0.03 | 0.00 | 44 | 1008.8 |
| 20260503215534 | 14 | 254 | 11.3 | 25.7 | 0.00 | 0.03 | 0.00 | 44 | 1008.8 |
| 20260503215028 | 14 | 259 | 8.0 | 22.5 | 0.00 | 0.03 | 0.00 | 44 | 1008.8 |